TimeEDT,TemperatureF,Dew PointF,Humidity,Sea Level PressureIn,VisibilityMPH,Wind Direction,Wind SpeedMPH,Gust SpeedMPH,PrecipitationIn,Events,Conditions,WindDirDegrees,DateUTC
12:35 AM,60.8,55.4,82,29.87,10.0,East,4.6,-,N/A,,Clear,100,2013-08-03 04:35:00
12:55 AM,60.8,55.4,82,29.87,10.0,ESE,4.6,-,N/A,,Clear,110,2013-08-03 04:55:00
1:15 AM,59.0,55.4,88,29.86,10.0,ENE,4.6,-,N/A,,Clear,70,2013-08-03 05:15:00
1:35 AM,60.8,55.4,82,29.85,10.0,ESE,4.6,-,N/A,,Clear,110,2013-08-03 05:35:00
1:55 AM,59.0,55.4,88,29.86,10.0,ESE,3.5,-,N/A,,Clear,120,2013-08-03 05:55:00
2:15 AM,57.2,53.6,88,29.85,10.0,ESE,6.9,-,N/A,,Clear,120,2013-08-03 06:15:00
2:35 AM,59.0,53.6,82,29.85,10.0,ESE,4.6,-,N/A,,Mostly Cloudy,110,2013-08-03 06:35:00
2:55 AM,57.2,53.6,88,29.83,10.0,ESE,6.9,-,N/A,,Overcast,120,2013-08-03 06:55:00
3:15 AM,57.2,53.6,88,29.82,10.0,ESE,6.9,-,N/A,,Mostly Cloudy,120,2013-08-03 07:15:00
3:35 AM,57.2,53.6,88,29.82,10.0,SE,8.1,-,N/A,,Overcast,130,2013-08-03 07:35:00
3:55 AM,59.0,53.6,82,29.82,10.0,ESE,10.4,-,N/A,,Overcast,120,2013-08-03 07:55:00
4:15 AM,60.8,53.6,77,29.82,10.0,SSE,8.1,-,N/A,,Overcast,160,2013-08-03 08:15:00
4:35 AM,60.8,55.4,82,29.82,10.0,SE,5.8,-,N/A,,Overcast,130,2013-08-03 08:35:00
4:55 AM,59.0,55.4,88,29.83,8.0,SE,6.9,-,0.02,,Overcast,130,2013-08-03 08:55:00
5:15 AM,59.0,55.4,88,29.83,8.0,SSE,4.6,-,0.02,,Overcast,160,2013-08-03 09:15:00
5:35 AM,59.0,57.2,94,29.83,10.0,Calm,Calm,-,0.04,,Overcast,0,2013-08-03 09:35:00
5:55 AM,57.2,57.2,100,29.83,7.0,NNE,3.5,-,0.09,,Overcast,20,2013-08-03 09:55:00
6:15 AM,57.2,57.2,100,29.85,3.0,NNW,5.8,-,0.09,,Overcast,330,2013-08-03 10:15:00
6:35 AM,57.2,55.4,94,29.85,4.0,Calm,Calm,-,0.12,,Overcast,0,2013-08-03 10:35:00
6:55 AM,57.2,57.2,100,29.85,6.0,Calm,Calm,-,0.12,,Overcast,0,2013-08-03 10:55:00
7:15 AM,59.0,57.2,94,29.84,10.0,South,5.8,-,N/A,,Overcast,190,2013-08-03 11:15:00
7:35 AM,59.0,57.2,94,29.84,10.0,SW,6.9,-,N/A,,Overcast,230,2013-08-03 11:35:00
7:55 AM,59.0,57.2,94,29.85,10.0,South,4.6,-,N/A,,Scattered Clouds,170,2013-08-03 11:55:00
8:15 AM,59.0,57.2,94,29.85,10.0,SSE,5.8,-,N/A,,Clear,160,2013-08-03 12:15:00
8:35 AM,60.8,55.4,82,29.85,10.0,SSW,5.8,-,N/A,,Clear,200,2013-08-03 12:35:00
8:55 AM,60.8,57.2,88,29.86,10.0,South,4.6,-,N/A,,Mostly Cloudy,180,2013-08-03 12:55:00
9:15 AM,60.8,57.2,88,29.86,10.0,SSW,4.6,-,N/A,,Mostly Cloudy,210,2013-08-03 13:15:00
9:35 AM,62.6,55.4,77,29.86,10.0,WSW,5.8,-,N/A,,Partly Cloudy,240,2013-08-03 13:35:00
9:55 AM,64.4,55.4,73,29.85,10.0,SW,4.6,-,N/A,,Partly Cloudy,230,2013-08-03 13:55:00
10:15 AM,64.4,55.4,73,29.85,10.0,SW,6.9,-,N/A,,Scattered Clouds,220,2013-08-03 14:15:00
10:35 AM,66.2,57.2,73,29.84,10.0,SSW,10.4,-,N/A,,Mostly Cloudy,200,2013-08-03 14:35:00
10:55 AM,66.2,57.2,73,29.84,10.0,SW,5.8,-,N/A,,Mostly Cloudy,220,2013-08-03 14:55:00
11:15 AM,69.8,57.2,64,29.84,10.0,West,9.2,18.4,N/A,,Scattered Clouds,280,2013-08-03 15:15:00
11:35 AM,69.8,57.2,64,29.83,10.0,WNW,9.2,-,N/A,,Partly Cloudy,300,2013-08-03 15:35:00
11:55 AM,69.8,57.2,64,29.82,10.0,WNW,12.7,17.3,N/A,,Scattered Clouds,290,2013-08-03 15:55:00
12:15 PM,71.6,57.2,60,29.82,10.0,SW,9.2,-,N/A,,Scattered Clouds,230,2013-08-03 16:15:00
12:35 PM,71.6,55.4,57,29.82,10.0,West,9.2,16.1,N/A,,Mostly Cloudy,280,2013-08-03 16:35:00
12:55 PM,73.4,53.6,50,29.81,10.0,West,11.5,20.7,N/A,,Mostly Cloudy,270,2013-08-03 16:55:00
1:15 PM,73.4,55.4,53,29.82,10.0,West,18.4,23.0,N/A,,Mostly Cloudy,260,2013-08-03 17:15:00
1:35 PM,71.6,55.4,57,29.82,10.0,WSW,8.1,20.7,N/A,,Overcast,240,2013-08-03 17:35:00
1:55 PM,73.4,53.6,50,29.81,10.0,West,10.4,24.2,N/A,,Mostly Cloudy,280,2013-08-03 17:55:00
2:15 PM,71.6,53.6,53,29.81,10.0,West,8.1,-,N/A,,Mostly Cloudy,280,2013-08-03 18:15:00
2:35 PM,73.4,51.8,47,29.81,10.0,West,9.2,-,N/A,,Mostly Cloudy,270,2013-08-03 18:35:00
2:55 PM,73.4,53.6,50,29.81,10.0,West,11.5,16.1,N/A,,Overcast,280,2013-08-03 18:55:00
3:15 PM,73.4,51.8,47,29.81,10.0,West,11.5,21.9,N/A,,Mostly Cloudy,280,2013-08-03 19:15:00
3:35 PM,75.2,51.8,44,29.81,10.0,West,12.7,17.3,N/A,,Scattered Clouds,260,2013-08-03 19:35:00
3:55 PM,75.2,51.8,44,29.81,10.0,West,11.5,18.4,N/A,,Scattered Clouds,270,2013-08-03 19:55:00
4:15 PM,73.4,51.8,47,29.81,10.0,WNW,9.2,-,N/A,,Mostly Cloudy,290,2013-08-03 20:15:00
4:35 PM,73.4,51.8,47,29.81,10.0,WNW,10.4,-,N/A,,Mostly Cloudy,300,2013-08-03 20:35:00
4:55 PM,73.4,50.0,44,29.81,10.0,WNW,6.9,-,N/A,,Mostly Cloudy,290,2013-08-03 20:55:00
5:15 PM,73.4,51.8,47,29.81,10.0,NW,8.1,-,N/A,,Scattered Clouds,310,2013-08-03 21:15:00
5:35 PM,71.6,51.8,50,29.82,10.0,NW,5.8,-,N/A,,Mostly Cloudy,320,2013-08-03 21:35:00
5:55 PM,71.6,53.6,53,29.82,10.0,WNW,5.8,-,N/A,,Mostly Cloudy,300,2013-08-03 21:55:00
6:15 PM,71.6,51.8,50,29.82,10.0,WNW,5.8,-,N/A,,Mostly Cloudy,300,2013-08-03 22:15:00
6:35 PM,71.6,51.8,50,29.82,10.0,NW,8.1,-,N/A,,Mostly Cloudy,310,2013-08-03 22:35:00
6:55 PM,71.6,53.6,53,29.82,10.0,WNW,5.8,-,N/A,,Mostly Cloudy,300,2013-08-03 22:55:00
7:15 PM,69.8,53.6,56,29.83,10.0,NW,3.5,-,N/A,,Mostly Cloudy,310,2013-08-03 23:15:00
7:35 PM,69.8,53.6,56,29.83,10.0,Calm,Calm,-,N/A,,Overcast,0,2013-08-03 23:35:00
7:55 PM,68.0,53.6,60,29.84,10.0,WNW,4.6,-,N/A,,Mostly Cloudy,300,2013-08-03 23:55:00
8:15 PM,66.2,53.6,64,29.84,10.0,WNW,4.6,-,N/A,,Partly Cloudy,290,2013-08-04 00:15:00
8:35 PM,64.4,55.4,73,29.85,10.0,NE,3.5,-,N/A,,Mostly Cloudy,50,2013-08-04 00:35:00
8:55 PM,64.4,55.4,73,29.86,10.0,Calm,Calm,-,N/A,,Overcast,0,2013-08-04 00:55:00
9:15 PM,64.4,55.4,73,29.87,10.0,Calm,Calm,-,N/A,,Overcast,0,2013-08-04 01:15:00
9:35 PM,62.6,55.4,77,29.87,10.0,SE,3.5,-,N/A,,Overcast,130,2013-08-04 01:35:00
9:55 PM,62.6,55.4,77,29.87,10.0,ESE,3.5,-,N/A,,Overcast,120,2013-08-04 01:55:00
10:15 PM,60.8,55.4,82,29.87,10.0,SSE,3.5,-,N/A,,Mostly Cloudy,160,2013-08-04 02:15:00
10:35 PM,64.4,53.6,68,29.87,10.0,NNW,5.8,-,N/A,,Mostly Cloudy,330,2013-08-04 02:35:00
10:55 PM,64.4,53.6,68,29.87,10.0,NNW,3.5,-,N/A,,Mostly Cloudy,340,2013-08-04 02:55:00
11:15 PM,62.6,53.6,72,29.87,10.0,NE,4.6,-,N/A,,Overcast,40,2013-08-04 03:15:00
11:35 PM,60.8,53.6,77,29.87,10.0,Calm,Calm,-,N/A,,Overcast,0,2013-08-04 03:35:00
11:55 PM,60.8,53.6,77,29.87,10.0,Calm,Calm,-,N/A,,Overcast,0,2013-08-04 03:55:00